Hlavní strana
METAR-TAF:

METAR-TAF

Letiště :

Olive Branch Airport

Olive Branch, Mississippi, Spojené státy americké

zeměpisná šířka: 34-58-44N, zeměpisná délka: 089-47-13W, výška: 122 m

Aktuální stav počasí

Zpráva byla vytvořena před 50 minutami, v 23:50 UTC
Bezvětří
Teplota 7°C
Vlhkost vzduchu 93%
Tlak 1024 hPa
Viditelnost: 6.4 km
Skoro jasno ve výšce 1400 ft
kouřmo

METAR: KOLV 072350Z 00000KT 4SM BR FEW014 07/06 A3025

Čas: 18:40 (00:40 UTC)


TAF: chybějící

Stav a předpovědi počasí z více než 4 000 letišť (zprávy METAR a TAF).

Červené a žluté tečky na mapě představují dostupné meteorologické stanice.

Když kurzor umístíte na tečku, zobrazí se název stanice.

Pak kliknutím zobrazíte stav a předpověď počasí.

Chcete-li změnit mapu, kliknutím na zelené tlačítko se znaménkem +mapu přiblížíte, kliknutím na zelené tlačítko se znaménkem – mapu oddálíte a kliknutím na zelené šipky přejdete na sousední mapy.


METAR-TAF: